Location: Unspecified
(0.0000°N, 0.0000°E)
Time: 10:11:26
(UTC+00:00)

Envisat - Pass Details

Date: 21 April 2019
Orbit: 764 x 766 km, 98.2° (Epoch: 23 May)

Event Time Altitude Azimuth Distance (km) Brightness Sun altitude
Rises 18:12:41 0° 145° (SE) 3,230 5.8 -3.4°
Reaches altitude 10° 18:15:24 10° 131° (SE) 2,302 5.0 -4.1°
Maximum altitude 18:19:27 24° 78° (ENE) 1,532 4.1 -5.1°
Drops below altitude 10° 18:23:29 10° 25° (NNE) 2,294 5.4 -6.1°
Sets 18:26:09 0° 11° (NNE) 3,217 6.2 -6.7°
